Wind_Speed
48 49 49 50 51 52 53 54 55 56 56 57 58 59 59 60 60 61 61 62 61 61 61 60 59 57 56 55 53 51 50 48 46 45 44 43 41 38 36 35 32 31 30
49 49 50 50 51 52 53 53 54 55 56 57 57 58 59 60 60 61 62 63 63 64 64 64 62 61 59 59 57 56 54 52 50 48 47 45 43 41 39 37 35 33 31
48 49 49 50 51 52 53 53 54 54 55 55 56 56 58 59 60 60 61 62 63 64 64 66 66 64 62 61 60 58 57 56 54 51 49 48 46 43 41 39 37 35 33
49 49 50 51 52 53 53 53 53 53 53 53 53 53 53 55 56 58 59 61 62 62 63 65 66 66 65 63 61 60 58 57 56 54 52 50 48 46 43 41 39 37 35
48 50 51 52 53 53 53 53 52 52 51 51 50 50 50 51 52 53 54 56 59 60 61 62 63 64 65 65 64 63 61 59 57 56 54 52 50 48 45 43 41 39 36
49 50 51 52 52 52 52 51 50 49 48 47 47 47 47 48 49 49 50 51 53 56 58 60 61 62 63 64 64 63 63 62 60 58 56 53 51 50 47 45 42 40 38
50 50 51 51 51 50 49 47 45 44 43 43 44 44 44 44 46 46 47 48 48 50 52 55 56 59 60 62 62 62 62 61 61 59 57 54 52 51 48 46 44 41 39
50 51 51 50 49 47 44 42 41 40 39 40 40 42 43 43 44 44 45 45 45 46 47 49 51 53 55 56 59 60 60 61 61 59 57 55 53 51 50 48 45 42 39
50 50 50 49 47 43 41 38 36 35 35 35 36 38 39 40 42 42 42 42 41 42 43 45 46 47 50 52 54 56 57 58 59 59 58 56 54 52 51 49 46 43 40
50 49 48 47 44 41 38 35 33 31 30 30 31 32 34 36 38 39 39 39 38 38 39 40 41 43 44 46 47 50 53 54 56 57 58 57 55 53 52 50 47 44 40
49 48 47 44 42 38 35 32 29 27 26 25 26 27 29 30 32 34 35 35 35 36 36 37 39 40 41 42 42 44 47 50 53 54 55 55 55 54 52 50 47 44 41
47 47 45 42 39 36 32 28 25 23 22 21 20 21 24 26 29 30 31 32 33 34 34 35 36 37 38 39 40 41 44 47 49 51 52 53 52 53 52 50 48 45 42
46 45 43 40 37 33 29 25 21 18 16 16 15 16 19 22 24 26 28 29 30 31 32 32 33 35 36 37 39 40 42 44 46 49 50 52 52 51 51 50 48 46 43
45 43 41 38 35 31 26 23 18 14 12 11 11 13 15 19 22 23 25 26 27 28 29 29 30 32 32 33 37 38 40 42 43 46 48 50 52 51 50 50 48 46 43
44 42 39 36 33 29 24 21 16 13 11 8 8 9 12 15 18 21 22 23 24 25 26 26 26 28 29 31 33 35 38 40 41 44 47 49 49 49 49 48 48 46 43
44 41 38 35 31 27 23 20 16 13 10 8 6 7 9 11 15 18 19 20 20 22 22 23 24 25 26 28 31 33 36 38 40 42 44 47 48 48 47 47 46 44 42
43 40 37 33 29 26 23 20 16 12 10 6 4 3 6 9 12 15 16 17 17 18 19 19 21 23 23 25 28 31 33 36 37 39 42 46 48 48 46 46 45 43 41
42 40 36 32 28 25 23 19 15 12 9 7 3 0 3 6 9 12 13 14 15 15 16 17 19 21 22 23 27 29 31 33 35 37 40 43 45 45 45 44 44 42 40
41 39 35 32 29 26 23 20 16 13 10 8 5 2 3 5 7 9 11 12 13 14 15 16 17 18 20 23 26 27 29 33 35 36 38 41 43 44 44 43 41 39 38
39 38 35 31 29 26 23 20 17 14 11 9 7 5 5 5 6 7 9 10 11 12 13 15 16 17 19 22 24 26 28 31 35 37 38 39 40 41 41 41 39 37 35
38 37 34 31 29 26 23 21 18 16 13 12 9 8 7 7 6 7 8 9 10 10 11 13 14 16 18 22 25 25 27 31 34 35 35 36 37 38 37 36 37 35 33
36 35 34 31 29 26 24 22 19 17 15 14 12 10 9 9 9 8 9 9 9 9 11 13 15 18 20 22 25 27 29 31 33 32 32 34 35 35 34 34 34 33 32
34 33 32 30 28 26 24 22 21 19 17 16 14 13 13 12 11 12 11 11 11 11 13 14 16 18 21 25 27 28 30 32 33 31 31 32 33 32 31 31 30 30 29
31 31 30 28 27 26 25 23 21 20 19 18 18 17 16 16 15 15 15 13 13 13 15 17 19 21 23 26 27 28 30 32 32 30 29 30 30 29 28 28 28 28 27
28 28 28 27 26 25 24 23 22 21 20 19 19 19 18 18 18 17 17 17 17 18 19 20 21 23 25 26 27 28 30 30 29 28 28 29 28 26 26 26 26 25 24
26 25 25 25 25 24 23 22 21 21 20 20 20 20 20 20 20 19 19 19 19 20 21 22 24 24 25 25 25 26 27 27 27 27 26 25 25 24 24 24 24 23 22
Wind_Direction
298 296 294 292 290 287 284 282 279 275 272 268 265 262 260 257 255 253 251 250 248 246 245 245 245 244 243 242 240 240 240 240 239 239 240 240 240 239 238 239 242 243 245
302 299 297 295 292 290 288 286 283 279 275 271 267 263 260 258 255 253 251 249 248 246 245 244 244 243 242 242 240 239 239 239 239 238 239 239 240 239 239 238 239 241 243
306 304 301 299 296 293 290 288 285 281 277 273 269 265 261 258 255 252 251 249 247 246 245 243 242 241 241 241 240 239 239 238 238 238 237 238 239 239 239 238 238 239 241
309 307 304 302 299 296 292 289 285 281 277 272 268 265 261 258 255 252 250 248 246 245 244 242 241 240 239 239 239 238 238 237 236 237 236 237 237 238 238 238 238 238 240
313 310 307 305 302 298 294 290 285 281 276 272 267 263 260 257 255 253 250 247 244 242 242 241 240 239 239 239 238 237 237 236 235 235 235 235 235 236 237 237 238 238 238
315 313 311 308 305 301 296 291 286 280 276 270 265 261 257 255 253 251 249 246 244 242 240 240 240 239 238 238 238 237 237 236 235 234 233 233 233 234 235 236 236 237 237
318 316 314 311 308 304 298 294 288 281 275 269 264 259 256 253 250 248 247 245 243 241 239 238 238 238 238 237 237 236 235 235 234 233 232 231 231 232 233 234 234 235 236
321 319 318 315 312 308 303 296 290 283 276 269 263 258 254 250 248 246 245 243 241 240 238 237 237 237 237 236 235 235 234 233 233 232 231 230 229 230 230 231 232 233 233
324 323 321 319 316 312 307 300 294 287 280 272 264 257 252 248 246 244 242 241 239 238 237 236 236 236 236 236 235 234 233 232 231 230 229 228 227 227 228 229 230 231 232
328 326 324 322 319 316 312 305 297 290 283 275 266 257 251 245 242 240 239 238 236 235 235 235 234 234 234 235 234 233 231 229 228 228 226 226 225 225 226 227 228 228 229
331 330 328 327 324 321 317 310 301 293 286 277 268 257 248 241 238 236 235 234 232 232 233 234 233 232 232 233 233 231 228 227 226 224 222 222 223 223 224 224 226 226 226
335 334 333 331 329 326 323 316 307 299 290 280 268 255 243 237 236 234 232 231 230 230 231 233 233 232 231 231 230 229 227 226 225 223 221 219 219 220 221 222 223 224 224
338 338 338 337 335 331 329 324 316 306 297 285 269 253 242 235 233 232 229 227 227 227 228 231 232 231 230 229 228 226 225 224 224 222 220 218 216 216 218 219 220 221 222
342 342 342 341 340 339 336 332 326 317 306 292 273 254 241 232 229 227 225 224 224 224 226 228 228 228 228 228 227 224 223 222 220 217 215 214 214 214 215 216 217 219 220
346 345 345 345 345 344 342 341 337 328 319 305 281 254 238 228 222 218 218 219 218 219 221 224 226 226 226 226 223 221 219 217 214 212 212 212 211 210 210 213 214 216 217
350 349 348 348 350 351 349 347 344 337 327 311 287 255 234 220 213 211 211 211 213 216 219 221 223 222 224 224 221 218 214 211 210 208 209 208 208 207 208 210 211 214 216
354 354 354 354 354 356 355 354 353 350 345 335 312 262 222 209 203 203 204 207 211 212 213 215 217 218 220 220 215 211 208 205 205 205 205 205 205 205 207 207 208 211 212
358 359 360 0 0 1 1 3 5 8 10 10 4 358 178 185 191 194 198 201 205 207 209 212 214 215 216 213 207 206 204 201 199 199 197 197 199 202 203 205 206 207 210
1 3 4 6 8 9 10 11 14 18 23 28 37 73 139 165 179 190 195 199 203 205 209 212 213 213 211 204 199 198 196 194 193 192 191 192 196 200 201 202 203 205 209
4 6 8 9 12 13 16 19 21 26 32 38 50 70 103 137 162 180 191 196 200 204 206 205 207 207 201 197 193 191 190 188 187 187 187 189 192 195 196 197 200 203 206
7 9 12 13 16 18 22 26 29 37 44 52 63 76 92 111 135 155 167 177 184 189 194 196 196 190 188 184 181 180 179 180 182 182 183 184 188 190 191 194 197 201 205
9 11 15 18 21 24 28 31 36 44 51 55 60 71 86 97 108 121 135 146 153 165 171 171 171 168 168 173 172 170 170 173 175 175 176 179 183 186 190 194 198 201 205
11 14 18 23 27 30 34 38 43 48 54 59 66 74 80 85 94 103 113 124 127 131 142 149 154 157 162 166 166 165 166 168 169 170 172 178 182 186 189 192 197 200 203
13 17 21 26 29 33 38 42 47 52 57 64 69 76 83 87 94 100 104 109 115 121 129 134 143 150 155 159 162 161 162 164 165 167 171 175 179 184 187 190 194 198 201
14 18 23 28 32 36 40 45 50 56 62 67 72 78 84 89 94 98 100 102 105 112 119 125 130 136 144 149 152 155 158 162 163 166 170 173 176 180 184 188 192 195 199
16 19 24 29 33 38 42 47 53 60 66 71 76 80 85 89 92 95 98 101 105 112 118 123 126 127 131 136 141 148 153 157 160 164 168 171 174 178 182 186 191 196 200
Height
5725 5719 5714 5708 5704 5699 5696 5692 5689 5687 5686 5685 5685 5685 5686 5688 5691 5694 5697 5701 5705 5709 5714 5718 5723 5728 5732 5737 5742 5747 5752 5757 5762 5766 5769 5773 5778 5782 5786 5789 5791 5794 5796
5710 5704 5698 5692 5687 5681 5677 5673 5669 5667 5665 5664 5664 5664 5665 5667 5670 5673 5677 5681 5685 5690 5695 5700 5706 5711 5716 5722 5727 5733 5739 5744 5749 5754 5759 5763 5767 5772 5776 5780 5783 5786 5788
5696 5689 5682 5676 5670 5664 5659 5654 5650 5647 5644 5643 5642 5643 5644 5646 5649 5652 5656 5660 5665 5670 5675 5681 5687 5693 5699 5705 5711 5717 5724 5730 5736 5742 5748 5752 5757 5762 5767 5771 5775 5778 5780
5681 5674 5667 5660 5653 5646 5641 5635 5631 5627 5625 5623 5622 5623 5624 5626 5629 5632 5636 5640 5645 5650 5656 5662 5668 5674 5681 5688 5694 5701 5708 5715 5722 5729 5735 5741 5746 5751 5756 5761 5766 5769 5772
5668 5659 5651 5643 5636 5628 5622 5616 5611 5608 5605 5604 5604 5604 5605 5607 5610 5613 5617 5621 5626 5632 5637 5643 5649 5656 5663 5670 5677 5685 5692 5700 5707 5715 5722 5729 5735 5740 5746 5751 5756 5760 5764
5654 5645 5636 5627 5619 5610 5603 5597 5592 5588 5586 5584 5585 5586 5587 5589 5592 5595 5599 5603 5609 5614 5620 5626 5632 5639 5645 5653 5660 5668 5676 5685 5693 5701 5709 5717 5723 5729 5735 5740 5746 5751 5755
5640 5631 5621 5611 5601 5593 5585 5578 5574 5570 5568 5567 5567 5568 5570 5573 5576 5579 5583 5587 5593 5598 5604 5610 5616 5622 5629 5636 5644 5651 5659 5668 5678 5687 5696 5704 5712 5718 5725 5730 5736 5741 5746
5627 5616 5606 5595 5586 5577 5569 5562 5557 5554 5552 5550 5551 5552 5554 5557 5560 5564 5568 5573 5578 5584 5590 5595 5601 5607 5614 5621 5628 5635 5643 5653 5663 5673 5683 5692 5699 5706 5713 5719 5725 5731 5737
5614 5603 5592 5582 5572 5563 5555 5548 5543 5539 5537 5536 5536 5537 5539 5543 5546 5550 5554 5560 5565 5571 5576 5582 5588 5594 5600 5607 5614 5622 5630 5639 5647 5658 5668 5677 5686 5695 5702 5709 5716 5722 5728
5602 5591 5580 5569 5559 5550 5543 5536 5531 5527 5524 5523 5523 5524 5526 5529 5533 5537 5542 5548 5554 5560 5565 5570 5576 5582 5587 5593 5600 5608 5616 5624 5633 5644 5654 5664 5674 5683 5691 5699 5706 5713 5719
5592 5581 5569 5558 5548 5540 5532 5525 5520 5517 5514 5512 5512 5513 5515 5518 5522 5526 5532 5537 5543 5549 5554 5559 5564 5570 5576 5582 5589 5596 5603 5611 5620 5630 5640 5651 5661 5672 5681 5689 5697 5704 5711
5583 5572 5560 5550 5540 5531 5523 5517 5512 5508 5506 5504 5503 5504 5506 5510 5514 5518 5523 5529 5534 5539 5544 5549 5554 5560 5566 5572 5578 5585 5592 5600 5608 5618 5629 5640 5650 5661 5670 5679 5688 5695 5702
5576 5565 5553 5543 5533 5524 5517 5510 5505 5502 5499 5498 5497 5498 5500 5503 5506 5510 5515 5520 5526 5531 5536 5541 5546 5551 5557 5563 5569 5575 5582 5590 5598 5608 5619 5630 5640 5650 5660 5669 5678 5686 5693
5570 5559 5548 5537 5528 5519 5512 5506 5501 5498 5495 5494 5493 5494 5495 5498 5501 5505 5509 5514 5519 5524 5529 5534 5539 5544 5549 5554 5560 5566 5573 5581 5589 5599 5609 5619 5630 5640 5650 5660 5669 5678 5685
5565 5554 5544 5534 5524 5516 5509 5503 5499 5495 5493 5491 5490 5490 5492 5494 5496 5500 5504 5509 5514 5519 5523 5528 5533 5538 5542 5547 5552 5558 5565 5572 5581 5590 5600 5610 5621 5632 5642 5652 5661 5670 5678
5562 5551 5540 5531 5522 5514 5508 5502 5497 5494 5491 5489 5489 5489 5489 5491 5493 5497 5501 5506 5510 5515 5519 5523 5528 5532 5536 5540 5545 5551 5558 5565 5574 5583 5593 5602 5613 5624 5634 5644 5653 5662 5670
5560 5549 5538 5529 5521 5514 5507 5502 5497 5493 5490 5489 5488 5488 5489 5490 5493 5496 5500 5504 5508 5512 5516 5519 5523 5527 5530 5534 5539 5545 5552 5559 5568 5576 5586 5596 5607 5618 5628 5637 5647 5656 5664
5559 5548 5538 5529 5521 5514 5508 5502 5497 5494 5492 5490 5489 5488 5489 5491 5493 5496 5500 5503 5507 5510 5513 5517 5520 5523 5526 5530 5534 5540 5547 5554 5562 5571 5581 5591 5601 5612 5622 5632 5641 5650 5658
5560 5550 5540 5531 5523 5516 5510 5504 5500 5497 5494 5492 5491 5490 5491 5492 5494 5497 5499 5502 5505 5508 5511 5514 5517 5519 5522 5526 5531 5537 5543 5551 5559 5568 5577 5587 5597 5608 5617 5627 5636 5645 5652
5562 5552 5542 5534 5526 5519 5513 5507 5503 5500 5497 5495 5493 5493 5493 5494 5496 5497 5499 5502 5504 5507 5509 5512 5514 5517 5520 5524 5529 5535 5542 5549 5558 5566 5576 5585 5595 5604 5614 5623 5632 5640 5648
5564 5554 5545 5537 5529 5523 5516 5511 5507 5504 5501 5499 5497 5496 5496 5497 5497 5499 5500 5502 5504 5506 5508 5510 5513 5516 5519 5523 5529 5535 5542 5550 5557 5566 5575 5585 5593 5603 5612 5620 5629 5636 5644
5567 5558 5549 5541 5534 5527 5521 5516 5512 5509 5506 5504 5502 5500 5500 5500 5501 5501 5502 5503 5504 5506 5508 5510 5513 5516 5520 5525 5531 5537 5544 5552 5560 5568 5576 5585 5594 5602 5611 5619 5627 5634 5640
5570 5562 5554 5546 5539 5533 5527 5522 5518 5515 5512 5509 5507 5506 5505 5505 5505 5505 5505 5506 5507 5508 5510 5512 5516 5519 5523 5529 5534 5541 5547 5555 5563 5571 5579 5587 5595 5603 5610 5618 5624 5631 5637
5574 5566 5559 5552 5546 5539 5534 5529 5525 5522 5519 5516 5514 5512 5511 5511 5511 5511 5511 5512 5512 5513 5515 5517 5520 5523 5528 5533 5538 5544 5552 5559 5567 5574 5582 5589 5597 5604 5610 5617 5623 5629 5635
5577 5571 5564 5558 5552 5546 5541 5536 5532 5529 5526 5523 5521 5520 5519 5518 5518 5518 5518 5519 5519 5520 5522 5524 5526 5530 5534 5539 5544 5551 5558 5565 5571 5578 5584 5591 5598 5604 5611 5617 5622 5628 5633
5581 5575 5569 5563 5557 5552 5547 5543 5539 5536 5534 5531 5530 5528 5527 5527 5526 5526 5527 5527 5527 5528 5530 5532 5535 5538 5542 5547 5552 5558 5564 5570 5576 5582 5588 5594 5600 5605 5611 5617 5622 5627 5631